Location: Buchloe
(48.0161°N, 10.7316°E)
Time: 03:55:43
(UTC+02:00)

ISS - Pass Details

Date: 09 July 2025
Orbit: 413 x 417 km, 51.6° (Epoch: 12 July)

Event Time Altitude Azimuth Distance (km) Brightness Sun altitude
Rises 00:23:31 0° 265° (W) 2,349 0.2 -18.4°
Reaches altitude 10° 00:25:39 10° 271° (W) 1,488 -0.8 -18.5°
Maximum altitude 00:28:55 51° 348° (NNW) 533 -2.9 -18.6°
Drops below altitude 10° 00:32:12 10° 66° (ENE) 1,493 -0.8 -18.7°
Sets 00:34:20 0° 72° (ENE) 2,358 0.1 -18.8°
